Time,TemperatureF,DewpointF,PressureIn,WindDirection,WindDirectionDegrees,WindSpeedMPH,WindSpeedGustMPH,Humidity,HourlyPrecipIn,Conditions,Clouds,dailyrainin,SoftwareType,DateUTC
2013-11-15 00:01:00,32.0,24.7,29.84,North,0,0.0,0.0,74,0.00,,,0.00,WUHU21636XXSP,2013-11-15 06:01:00,
2013-11-15 00:06:00,32.0,24.7,29.84,North,0,0.0,0.0,74,0.00,,,0.00,WUHU21636XXSP,2013-11-15 06:06:00,
2013-11-15 00:11:00,31.8,24.8,29.84,North,0,0.0,0.0,75,0.00,,,0.00,WUHU21636XXSP,2013-11-15 06:11:00,
2013-11-15 00:16:00,31.8,24.8,29.84,North,0,0.0,0.0,75,0.00,,,0.00,WUHU21636XXSP,2013-11-15 06:16:00,
2013-11-15 00:21:00,31.5,24.5,29.84,North,0,0.0,0.0,75,0.00,,,0.00,WUHU21636XXSP,2013-11-15 06:21:00,
2013-11-15 00:26:00,31.5,24.5,29.84,North,0,0.0,0.0,75,0.00,,,0.00,WUHU21636XXSP,2013-11-15 06:26:00,
2013-11-15 00:31:00,31.5,24.5,29.84,NNE,22,0.0,0.0,75,0.00,,,0.00,WUHU21636XXSP,2013-11-15 06:31:00,
2013-11-15 00:36:00,31.5,24.8,29.84,NNE,22,0.0,0.0,76,0.00,,,0.00,WUHU21636XXSP,2013-11-15 06:36:00,
2013-11-15 00:41:00,31.5,24.8,29.84,NNE,22,0.0,0.0,76,0.00,,,0.00,WUHU21636XXSP,2013-11-15 06:41:00,
2013-11-15 00:46:00,31.5,24.8,29.84,NNE,22,0.0,0.0,76,0.00,,,0.00,WUHU21636XXSP,2013-11-15 06:46:00,
2013-11-15 00:51:00,31.3,24.6,29.84,NNE,22,0.0,0.0,76,0.00,,,0.00,WUHU21636XXSP,2013-11-15 06:51:00,
2013-11-15 00:56:00,31.3,24.6,29.84,NNE,22,0.0,0.0,76,0.00,,,0.00,WUHU21636XXSP,2013-11-15 06:56:00,
2013-11-15 01:01:00,31.3,24.6,29.84,NNE,22,0.0,0.0,76,0.00,,,0.00,WUHU21636XXSP,2013-11-15 07:01:00,
2013-11-15 01:06:00,31.1,24.4,29.84,NNE,22,0.0,0.0,76,0.00,,,0.00,WUHU21636XXSP,2013-11-15 07:06:00,
2013-11-15 01:11:00,31.1,24.4,29.84,NNE,22,0.0,0.0,76,0.00,,,0.00,WUHU21636XXSP,2013-11-15 07:11:00,
2013-11-15 01:16:00,30.9,24.2,29.84,NNE,22,0.0,0.0,76,0.00,,,0.00,WUHU21636XXSP,2013-11-15 07:16:00,
2013-11-15 01:21:00,30.9,24.2,29.84,NNE,22,0.0,0.0,76,0.00,,,0.00,WUHU21636XXSP,2013-11-15 07:21:00,
2013-11-15 01:26:00,30.9,24.2,29.84,NNE,22,0.0,0.0,76,0.00,,,0.00,WUHU21636XXSP,2013-11-15 07:26:00,
2013-11-15 01:31:00,30.9,24.2,29.85,NNE,22,0.0,0.0,76,0.00,,,0.00,WUHU21636XXSP,2013-11-15 07:31:00,
2013-11-15 01:36:00,30.8,24.4,29.85,NNE,22,0.0,0.0,77,0.00,,,0.00,WUHU21636XXSP,2013-11-15 07:36:00,
2013-11-15 01:41:00,30.6,24.2,29.84,NNE,22,0.0,0.0,77,0.00,,,0.00,WUHU21636XXSP,2013-11-15 07:41:00,
2013-11-15 01:46:00,30.6,24.2,29.85,NNE,22,0.0,0.0,77,0.00,,,0.00,WUHU21636XXSP,2013-11-15 07:46:00,
2013-11-15 01:51:00,30.6,24.2,29.84,NNE,22,0.0,0.0,77,0.00,,,0.00,WUHU21636XXSP,2013-11-15 07:51:00,
2013-11-15 01:56:00,30.3,24.0,29.85,NNE,22,0.0,0.0,77,0.00,,,0.00,WUHU21636XXSP,2013-11-15 07:56:00,
2013-11-15 02:01:00,30.3,24.0,29.85,NNE,22,0.0,0.0,77,0.00,,,0.00,WUHU21636XXSP,2013-11-15 08:01:00,
2013-11-15 02:06:00,30.1,24.1,29.85,NNE,22,0.0,0.0,78,0.00,,,0.00,WUHU21636XXSP,2013-11-15 08:06:00,
2013-11-15 02:11:00,29.9,23.9,29.84,NNE,22,0.0,0.0,78,0.00,,,0.00,WUHU21636XXSP,2013-11-15 08:11:00,
2013-11-15 02:16:00,29.9,23.9,29.85,NNE,22,0.0,0.0,78,0.00,,,0.00,WUHU21636XXSP,2013-11-15 08:16:00,
2013-11-15 02:21:00,29.9,23.6,29.85,NNE,22,0.0,0.0,77,0.00,,,0.00,WUHU21636XXSP,2013-11-15 08:21:00,
2013-11-15 02:26:00,29.9,23.6,29.84,NNE,22,0.0,0.0,77,0.00,,,0.00,WUHU21636XXSP,2013-11-15 08:26:00,
2013-11-15 02:31:00,29.8,23.8,29.84,NNE,22,0.0,0.0,78,0.00,,,0.00,WUHU21636XXSP,2013-11-15 08:31:00,
2013-11-15 02:36:00,29.8,23.8,29.84,NNE,22,0.0,0.0,78,0.00,,,0.00,WUHU21636XXSP,2013-11-15 08:36:00,
2013-11-15 02:41:00,29.6,23.6,29.85,NNE,22,0.0,0.0,78,0.00,,,0.00,WUHU21636XXSP,2013-11-15 08:41:00,
2013-11-15 02:46:00,29.6,23.6,29.84,NNE,22,0.0,0.0,78,0.00,,,0.00,WUHU21636XXSP,2013-11-15 08:46:00,
2013-11-15 02:51:00,29.4,23.4,29.85,NNE,22,0.0,0.0,78,0.00,,,0.00,WUHU21636XXSP,2013-11-15 08:51:00,
2013-11-15 02:56:00,29.4,23.7,29.85,NNE,22,0.0,0.0,79,0.00,,,0.00,WUHU21636XXSP,2013-11-15 08:56:00,
2013-11-15 03:01:00,29.4,23.7,29.85,NNE,22,0.0,0.0,79,0.00,,,0.00,WUHU21636XXSP,2013-11-15 09:01:00,
2013-11-15 03:06:00,29.2,23.5,29.85,NNE,22,0.0,0.0,79,0.00,,,0.00,WUHU21636XXSP,2013-11-15 09:06:00,
2013-11-15 03:11:00,29.2,23.5,29.85,NNE,22,0.0,0.0,79,0.00,,,0.00,WUHU21636XXSP,2013-11-15 09:11:00,
2013-11-15 03:16:00,29.2,23.5,29.84,NNE,22,0.0,0.0,79,0.00,,,0.00,WUHU21636XXSP,2013-11-15 09:16:00,
2013-11-15 03:21:00,29.2,23.5,29.85,NNE,22,0.0,0.0,79,0.00,,,0.00,WUHU21636XXSP,2013-11-15 09:21:00,
2013-11-15 03:26:00,29.0,23.3,29.85,NNE,22,0.0,0.0,79,0.00,,,0.00,WUHU21636XXSP,2013-11-15 09:26:00,
2013-11-15 03:31:00,29.0,23.3,29.85,NNE,22,0.0,0.0,79,0.00,,,0.00,WUHU21636XXSP,2013-11-15 09:31:00,
2013-11-15 03:36:00,29.0,23.3,29.85,NNE,22,0.0,0.0,79,0.00,,,0.00,WUHU21636XXSP,2013-11-15 09:36:00,
2013-11-15 03:41:00,28.9,23.2,29.85,NNE,22,0.0,0.0,79,0.00,,,0.00,WUHU21636XXSP,2013-11-15 09:41:00,
2013-11-15 03:46:00,28.7,23.0,29.85,NNE,22,0.0,0.0,79,0.00,,,0.00,WUHU21636XXSP,2013-11-15 09:46:00,
2013-11-15 03:51:00,28.7,23.3,29.85,NNE,22,0.0,0.0,80,0.00,,,0.00,WUHU21636XXSP,2013-11-15 09:51:00,
2013-11-15 03:56:00,28.7,23.3,29.85,NNE,22,0.0,0.0,80,0.00,,,0.00,WUHU21636XXSP,2013-11-15 09:56:00,
2013-11-15 04:01:00,28.7,23.3,29.84,NNE,22,0.0,0.0,80,0.00,,,0.00,WUHU21636XXSP,2013-11-15 10:01:00,
2013-11-15 04:06:00,28.7,23.3,29.85,NNE,22,0.0,0.0,80,0.00,,,0.00,WUHU21636XXSP,2013-11-15 10:06:00,
2013-11-15 04:11:00,28.7,23.3,29.85,NNE,22,0.0,0.0,80,0.00,,,0.00,WUHU21636XXSP,2013-11-15 10:11:00,
2013-11-15 04:18:00,28.7,23.3,29.86,NNE,22,0.0,0.0,80,0.00,,,0.00,WUHU21636XXSP,2013-11-15 10:18:00,
2013-11-15 04:23:00,28.2,23.2,29.85,NNE,22,0.0,0.0,81,0.00,,,0.00,WUHU21636XXSP,2013-11-15 10:23:00,
2013-11-15 04:28:00,28.2,23.2,29.85,NNE,22,0.0,0.0,81,0.00,,,0.00,WUHU21636XXSP,2013-11-15 10:28:00,
2013-11-15 04:33:00,28.2,23.2,29.85,NNE,22,0.0,0.0,81,0.00,,,0.00,WUHU21636XXSP,2013-11-15 10:33:00,
2013-11-15 04:38:00,28.2,22.9,29.85,NNE,22,0.0,0.0,80,0.00,,,0.00,WUHU21636XXSP,2013-11-15 10:38:00,
2013-11-15 04:43:00,28.0,22.7,29.85,NNE,22,0.0,0.0,80,0.00,,,0.00,WUHU21636XXSP,2013-11-15 10:43:00,
2013-11-15 04:48:00,28.0,22.7,29.85,NNE,22,0.0,0.0,80,0.00,,,0.00,WUHU21636XXSP,2013-11-15 10:48:00,
2013-11-15 04:53:00,28.0,22.7,29.86,NNE,22,0.0,0.0,80,0.00,,,0.00,WUHU21636XXSP,2013-11-15 10:53:00,
2013-11-15 04:58:00,28.0,22.7,29.86,NNE,22,0.0,0.0,80,0.00,,,0.00,WUHU21636XXSP,2013-11-15 10:58:00,
2013-11-15 05:03:00,27.7,22.6,29.86,NNE,22,0.0,0.0,81,0.00,,,0.00,WUHU21636XXSP,2013-11-15 11:03:00,
2013-11-15 05:08:00,27.7,22.6,29.86,NNE,22,0.0,0.0,81,0.00,,,0.00,WUHU21636XXSP,2013-11-15 11:08:00,
2013-11-15 05:13:00,27.7,22.6,29.86,NNE,22,0.0,0.0,81,0.00,,,0.00,WUHU21636XXSP,2013-11-15 11:13:00,
2013-11-15 05:18:00,27.7,22.6,29.86,NNE,22,0.0,0.0,81,0.00,,,0.00,WUHU21636XXSP,2013-11-15 11:18:00,
2013-11-15 05:23:00,27.5,22.4,29.86,NNE,22,0.0,0.0,81,0.00,,,0.00,WUHU21636XXSP,2013-11-15 11:23:00,
2013-11-15 05:28:00,27.5,22.4,29.86,NNE,22,0.0,0.0,81,0.00,,,0.00,WUHU21636XXSP,2013-11-15 11:28:00,
2013-11-15 05:33:00,27.5,22.4,29.86,NNE,22,0.0,0.0,81,0.00,,,0.00,WUHU21636XXSP,2013-11-15 11:33:00,
2013-11-15 05:38:00,27.3,22.2,29.87,NNE,22,0.0,0.0,81,0.00,,,0.00,WUHU21636XXSP,2013-11-15 11:38:00,
2013-11-15 05:43:00,27.3,22.2,29.87,NNE,22,0.0,0.0,81,0.00,,,0.00,WUHU21636XXSP,2013-11-15 11:43:00,
2013-11-15 05:48:00,27.1,22.0,29.86,NNE,22,0.0,0.0,81,0.00,,,0.00,WUHU21636XXSP,2013-11-15 11:48:00,
2013-11-15 05:53:00,27.1,22.0,29.86,NNE,22,0.0,0.0,81,0.00,,,0.00,WUHU21636XXSP,2013-11-15 11:53:00,
2013-11-15 05:58:00,27.1,22.0,29.87,NNE,22,0.0,0.0,81,0.00,,,0.00,WUHU21636XXSP,2013-11-15 11:58:00,
2013-11-15 06:03:00,27.1,22.0,29.86,NNE,22,0.0,0.0,81,0.00,,,0.00,WUHU21636XXSP,2013-11-15 12:03:00,
2013-11-15 06:08:00,27.1,22.0,29.87,NNE,22,0.0,0.0,81,0.00,,,0.00,WUHU21636XXSP,2013-11-15 12:08:00,
2013-11-15 06:13:00,27.1,22.0,29.87,NNE,22,0.0,0.0,81,0.00,,,0.00,WUHU21636XXSP,2013-11-15 12:13:00,
2013-11-15 06:18:00,27.1,22.0,29.87,NNE,22,0.0,0.0,81,0.00,,,0.00,WUHU21636XXSP,2013-11-15 12:18:00,
2013-11-15 06:23:00,27.1,22.0,29.87,NNE,22,0.0,0.0,81,0.00,,,0.00,WUHU21636XXSP,2013-11-15 12:23:00,
2013-11-15 06:28:00,27.0,21.9,29.87,NNE,22,0.0,0.0,81,0.00,,,0.00,WUHU21636XXSP,2013-11-15 12:28:00,
2013-11-15 06:33:00,27.0,21.9,29.87,NNE,22,0.0,0.0,81,0.00,,,0.00,WUHU21636XXSP,2013-11-15 12:33:00,
2013-11-15 06:38:00,27.0,21.9,29.87,NNE,22,0.0,0.0,81,0.00,,,0.00,WUHU21636XXSP,2013-11-15 12:38:00,
2013-11-15 06:43:00,27.0,21.9,29.87,NNE,22,0.0,0.0,81,0.00,,,0.00,WUHU21636XXSP,2013-11-15 12:43:00,
2013-11-15 06:48:00,27.0,21.9,29.87,NNE,22,0.0,0.0,81,0.00,,,0.00,WUHU21636XXSP,2013-11-15 12:48:00,
2013-11-15 06:53:00,26.8,21.7,29.87,NNE,22,0.0,0.0,81,0.00,,,0.00,WUHU21636XXSP,2013-11-15 12:53:00,
2013-11-15 06:58:00,26.8,21.7,29.87,NNE,22,0.0,0.0,81,0.00,,,0.00,WUHU21636XXSP,2013-11-15 12:58:00,
2013-11-15 07:03:00,26.8,21.7,29.88,NNE,22,0.0,0.0,81,0.00,,,0.00,WUHU21636XXSP,2013-11-15 13:03:00,
2013-11-15 07:08:00,26.8,21.7,29.88,NNE,22,0.0,0.0,81,0.00,,,0.00,WUHU21636XXSP,2013-11-15 13:08:00,
2013-11-15 07:13:00,26.8,21.7,29.88,NNE,22,0.0,0.0,81,0.00,,,0.00,WUHU21636XXSP,2013-11-15 13:13:00,
2013-11-15 07:18:00,26.8,21.7,29.87,NNE,22,0.0,0.0,81,0.00,,,0.00,WUHU21636XXSP,2013-11-15 13:18:00,
2013-11-15 07:23:00,26.8,21.7,29.87,NNE,22,0.0,0.0,81,0.00,,,0.00,WUHU21636XXSP,2013-11-15 13:23:00,
2013-11-15 07:28:00,27.1,22.3,29.87,NNE,22,0.0,0.0,82,0.00,,,0.00,WUHU21636XXSP,2013-11-15 13:28:00,
2013-11-15 07:33:00,27.1,22.3,29.87,NNE,22,0.0,0.0,82,0.00,,,0.00,WUHU21636XXSP,2013-11-15 13:33:00,
2013-11-15 07:38:00,27.1,22.3,29.88,NNE,22,0.0,0.0,82,0.00,,,0.00,WUHU21636XXSP,2013-11-15 13:38:00,
2013-11-15 07:43:00,27.0,22.2,29.88,NNE,22,0.0,0.0,82,0.00,,,0.00,WUHU21636XXSP,2013-11-15 13:43:00,
2013-11-15 07:48:00,27.1,22.3,29.88,NNE,22,0.0,0.0,82,0.00,,,0.00,WUHU21636XXSP,2013-11-15 13:48:00,
2013-11-15 07:53:00,27.1,22.6,29.88,NNE,22,0.0,0.0,83,0.00,,,0.00,WUHU21636XXSP,2013-11-15 13:53:00,
2013-11-15 07:58:00,27.3,22.8,29.88,NNE,22,0.0,0.0,83,0.00,,,0.00,WUHU21636XXSP,2013-11-15 13:58:00,
2013-11-15 08:03:00,27.3,22.8,29.87,NNE,22,0.0,0.0,83,0.00,,,0.00,WUHU21636XXSP,2013-11-15 14:03:00,
2013-11-15 08:08:00,27.3,22.8,29.88,NNE,22,0.0,0.0,83,0.00,,,0.00,WUHU21636XXSP,2013-11-15 14:08:00,
2013-11-15 08:13:00,27.5,23.0,29.88,NNE,22,0.0,0.0,83,0.00,,,0.00,WUHU21636XXSP,2013-11-15 14:13:00,
2013-11-15 08:18:00,28.0,23.2,29.88,NNE,22,0.0,0.0,82,0.00,,,0.00,WUHU21636XXSP,2013-11-15 14:18:00,
2013-11-15 08:23:00,28.0,23.2,29.88,NNE,22,0.0,0.0,82,0.00,,,0.00,WUHU21636XXSP,2013-11-15 14:23:00,
2013-11-15 08:28:00,28.7,23.9,29.88,NNE,22,0.0,0.0,82,0.00,,,0.00,WUHU21636XXSP,2013-11-15 14:28:00,
2013-11-15 08:33:00,29.0,24.2,29.88,NNE,22,0.0,0.0,82,0.00,,,0.00,WUHU21636XXSP,2013-11-15 14:33:00,
2013-11-15 08:38:00,29.4,24.9,29.88,NNE,22,0.0,0.0,83,0.00,,,0.00,WUHU21636XXSP,2013-11-15 14:38:00,
2013-11-15 08:43:00,29.9,25.4,29.88,NNE,22,0.0,0.0,83,0.00,,,0.00,WUHU21636XXSP,2013-11-15 14:43:00,
2013-11-15 08:48:00,30.6,25.7,29.88,NNE,22,0.0,0.0,82,0.00,,,0.00,WUHU21636XXSP,2013-11-15 14:48:00,
2013-11-15 08:53:00,31.3,26.4,29.88,NNE,22,0.0,0.0,82,0.00,,,0.00,WUHU21636XXSP,2013-11-15 14:53:00,
2013-11-15 08:58:00,31.8,26.9,29.88,NNE,22,0.0,0.0,82,0.00,,,0.00,WUHU21636XXSP,2013-11-15 14:58:00,
2013-11-15 09:03:00,32.4,27.6,29.88,NNE,22,0.0,0.0,82,0.00,,,0.00,WUHU21636XXSP,2013-11-15 15:03:00,
2013-11-15 09:08:00,33.0,28.1,29.88,NE,45,0.0,0.0,82,0.00,,,0.00,WUHU21636XXSP,2013-11-15 15:08:00,
2013-11-15 09:13:00,33.7,28.8,29.88,NE,45,0.0,0.0,82,0.00,,,0.00,WUHU21636XXSP,2013-11-15 15:13:00,
2013-11-15 09:18:00,34.1,28.9,29.88,NE,45,0.0,0.0,81,0.00,,,0.00,WUHU21636XXSP,2013-11-15 15:18:00,
2013-11-15 09:23:00,34.7,29.4,29.88,NE,45,0.0,0.0,81,0.00,,,0.00,WUHU21636XXSP,2013-11-15 15:23:00,
2013-11-15 09:28:00,35.6,30.0,29.88,NE,45,0.0,0.0,80,0.00,,,0.00,WUHU21636XXSP,2013-11-15 15:28:00,
2013-11-15 09:33:00,36.2,30.7,29.88,NE,45,0.0,0.0,80,0.00,,,0.00,WUHU21636XXSP,2013-11-15 15:33:00,
2013-11-15 09:38:00,37.0,31.1,29.89,NE,45,0.0,0.0,79,0.00,,,0.00,WUHU21636XXSP,2013-11-15 15:38:00,
2013-11-15 09:43:00,37.7,31.5,29.89,NE,45,0.0,0.0,78,0.00,,,0.00,WUHU21636XXSP,2013-11-15 15:43:00,
2013-11-15 09:48:00,38.4,31.9,29.89,SE,135,0.0,0.0,77,0.00,,,0.00,WUHU21636XXSP,2013-11-15 15:48:00,
2013-11-15 09:53:00,39.1,32.2,29.89,SE,135,0.0,0.0,76,0.00,,,0.00,WUHU21636XXSP,2013-11-15 15:53:00,
2013-11-15 09:58:00,40.0,32.8,29.89,South,180,0.0,0.0,75,0.00,,,0.00,WUHU21636XXSP,2013-11-15 15:58:00,
2013-11-15 10:03:00,40.5,33.0,29.89,South,180,0.0,0.0,74,0.00,,,0.00,WUHU21636XXSP,2013-11-15 16:03:00,
2013-11-15 10:08:00,41.0,33.0,29.89,South,180,0.0,0.0,73,0.00,,,0.00,WUHU21636XXSP,2013-11-15 16:08:00,
2013-11-15 10:13:00,41.9,33.3,29.89,SSE,157,0.0,0.0,71,0.00,,,0.00,WUHU21636XXSP,2013-11-15 16:13:00,
2013-11-15 10:18:00,42.4,33.8,29.90,South,180,0.0,0.0,71,0.00,,,0.00,WUHU21636XXSP,2013-11-15 16:18:00,
2013-11-15 10:23:00,42.8,33.8,29.90,South,180,0.0,0.0,70,0.00,,,0.00,WUHU21636XXSP,2013-11-15 16:23:00,
2013-11-15 10:28:00,44.0,34.6,29.90,South,180,0.0,0.0,69,0.00,,,0.00,WUHU21636XXSP,2013-11-15 16:28:00,
2013-11-15 10:33:00,44.5,35.1,29.89,South,180,0.0,0.0,69,0.00,,,0.00,WUHU21636XXSP,2013-11-15 16:33:00,
2013-11-15 10:38:00,45.0,35.2,29.90,South,180,0.0,0.0,68,0.00,,,0.00,WUHU21636XXSP,2013-11-15 16:38:00,
2013-11-15 10:43:00,45.9,34.5,29.90,South,180,0.0,0.0,64,0.00,,,0.00,WUHU21636XXSP,2013-11-15 16:43:00,
2013-11-15 10:48:00,46.0,35.0,29.90,South,180,0.0,0.0,65,0.00,,,0.00,WUHU21636XXSP,2013-11-15 16:48:00,
2013-11-15 10:53:00,46.4,35.0,29.90,South,180,0.0,0.0,64,0.00,,,0.00,WUHU21636XXSP,2013-11-15 16:53:00,
2013-11-15 10:58:00,46.9,35.1,29.90,South,180,6.2,6.2,63,0.00,,,0.00,WUHU21636XXSP,2013-11-15 16:58:00,
2013-11-15 11:03:00,47.9,36.0,29.89,South,180,1.2,6.2,63,0.00,,,0.00,WUHU21636XXSP,2013-11-15 17:03:00,
2013-11-15 11:08:00,48.5,36.2,29.89,South,180,0.0,6.2,62,0.00,,,0.00,WUHU21636XXSP,2013-11-15 17:08:00,
2013-11-15 11:13:00,48.8,35.6,29.88,WSW,247,0.0,1.2,60,0.00,,,0.00,WUHU21636XXSP,2013-11-15 17:13:00,
2013-11-15 11:18:00,49.2,35.2,29.89,WSW,247,0.0,0.0,58,0.00,,,0.00,WUHU21636XXSP,2013-11-15 17:18:00,
2013-11-15 11:23:00,49.8,36.5,29.88,SW,225,0.0,0.0,60,0.00,,,0.00,WUHU21636XXSP,2013-11-15 17:23:00,
2013-11-15 11:28:00,50.4,36.3,29.87,SW,225,0.0,0.0,58,0.00,,,0.00,WUHU21636XXSP,2013-11-15 17:28:00,
2013-11-15 11:33:00,50.7,35.6,29.87,SW,225,0.0,0.0,56,0.00,,,0.00,WUHU21636XXSP,2013-11-15 17:33:00,
2013-11-15 11:38:00,50.9,36.3,29.87,SW,225,2.2,2.2,57,0.00,,,0.00,WUHU21636XXSP,2013-11-15 17:38:00,
2013-11-15 11:43:00,51.6,36.9,29.87,South,180,0.0,2.2,57,0.00,,,0.00,WUHU21636XXSP,2013-11-15 17:43:00,
2013-11-15 11:48:00,52.3,37.1,29.86,SW,225,1.2,1.2,56,0.00,,,0.00,WUHU21636XXSP,2013-11-15 17:48:00,
2013-11-15 11:53:00,52.1,36.5,29.86,West,270,0.0,1.2,55,0.00,,,0.00,WUHU21636XXSP,2013-11-15 17:53:00,
2013-11-15 11:58:00,52.1,36.0,29.86,WSW,247,9.2,9.2,54,0.00,,,0.00,WUHU21636XXSP,2013-11-15 17:58:00,
2013-11-15 12:03:00,52.3,36.2,29.86,SW,225,5.8,9.2,54,0.00,,,0.00,WUHU21636XXSP,2013-11-15 18:03:00,
2013-11-15 12:08:00,52.8,36.7,29.85,SSE,157,1.6,5.8,54,0.00,,,0.00,WUHU21636XXSP,2013-11-15 18:08:00,
2013-11-15 12:13:00,53.5,36.9,29.85,ESE,112,6.2,13.8,53,0.00,,,0.00,WUHU21636XXSP,2013-11-15 18:13:00,
2013-11-15 12:18:00,53.5,36.4,29.85,WSW,247,0.0,13.8,52,0.00,,,0.00,WUHU21636XXSP,2013-11-15 18:18:00,
2013-11-15 12:23:00,54.0,36.2,29.85,West,270,6.2,6.2,51,0.00,,,0.00,WUHU21636XXSP,2013-11-15 18:23:00,
2013-11-15 12:28:00,53.8,36.6,29.85,SW,225,4.8,14.2,52,0.00,,,0.00,WUHU21636XXSP,2013-11-15 18:28:00,
2013-11-15 12:33:00,54.0,36.8,29.85,SSW,202,0.0,14.2,52,0.00,,,0.00,WUHU21636XXSP,2013-11-15 18:33:00,
2013-11-15 12:38:00,54.0,36.2,29.85,West,270,2.2,4.0,51,0.00,,,0.00,WUHU21636XXSP,2013-11-15 18:38:00,
2013-11-15 12:43:00,53.5,36.4,29.85,WSW,247,8.4,8.4,52,0.00,,,0.00,WUHU21636XXSP,2013-11-15 18:43:00,
2013-11-15 12:48:00,53.2,36.6,29.85,WSW,247,0.0,8.4,53,0.00,,,0.00,WUHU21636XXSP,2013-11-15 18:48:00,
2013-11-15 12:53:00,53.5,36.9,29.85,West,270,0.0,8.4,53,0.00,,,0.00,WUHU21636XXSP,2013-11-15 18:53:00,
2013-11-15 12:58:00,53.4,36.8,29.85,South,180,7.6,7.6,53,0.00,,,0.00,WUHU21636XXSP,2013-11-15 18:58:00,
2013-11-15 13:03:00,53.5,36.4,29.84,WSW,247,5.2,7.6,52,0.00,,,0.00,WUHU21636XXSP,2013-11-15 19:03:00,
2013-11-15 13:08:00,53.8,37.1,29.84,SW,225,10.6,12.8,53,0.00,,,0.00,WUHU21636XXSP,2013-11-15 19:08:00,
2013-11-15 13:13:00,54.2,37.0,29.84,SSW,202,3.0,17.8,52,0.00,,,0.00,WUHU21636XXSP,2013-11-15 19:13:00,
2013-11-15 13:18:00,54.5,37.2,29.84,SSW,202,0.0,17.8,52,0.00,,,0.00,WUHU21636XXSP,2013-11-15 19:18:00,
2013-11-15 13:23:00,54.7,36.9,29.84,SW,225,12.8,12.8,51,0.00,,,0.00,WUHU21636XXSP,2013-11-15 19:23:00,
2013-11-15 13:28:00,54.7,36.9,29.84,WSW,247,6.2,12.8,51,0.00,,,0.00,WUHU21636XXSP,2013-11-15 19:28:00,
2013-11-15 13:33:00,54.5,36.7,29.83,SW,225,6.6,6.6,51,0.00,,,0.00,WUHU21636XXSP,2013-11-15 19:33:00,
2013-11-15 13:38:00,54.5,36.7,29.83,SSE,157,0.4,15.6,51,0.00,,,0.00,WUHU21636XXSP,2013-11-15 19:38:00,
2013-11-15 13:43:00,54.7,36.9,29.83,SW,225,4.4,15.6,51,0.00,,,0.00,WUHU21636XXSP,2013-11-15 19:43:00,
2013-11-15 13:48:00,55.1,37.3,29.83,SW,225,8.4,9.8,51,0.00,,,0.00,WUHU21636XXSP,2013-11-15 19:48:00,
2013-11-15 13:53:00,54.9,37.1,29.83,South,190,8.6,9.8,51,0.00,,,0.00,WUHU21636XXSP,2013-11-15 19:53:00,
2013-11-15 13:58:00,55.3,37.5,29.83,SW,225,0.8,8.8,51,0.00,,,0.00,WUHU21636XXSP,2013-11-15 19:58:00,
2013-11-15 14:03:00,55.3,37.0,29.83,WSW,247,10.6,10.6,50,0.00,,,0.00,WUHU21636XXSP,2013-11-15 20:03:00,
2013-11-15 14:08:00,55.3,37.0,29.83,SW,225,0.0,10.6,50,0.00,,,0.00,WUHU21636XXSP,2013-11-15 20:08:00,
2013-11-15 14:13:00,55.3,37.0,29.83,SSE,158,10.6,17.4,50,0.00,,,0.00,WUHU21636XXSP,2013-11-15 20:13:00,
2013-11-15 14:18:00,54.7,36.4,29.82,SE,135,4.8,17.4,50,0.00,,,0.00,WUHU21636XXSP,2013-11-15 20:18:00,
2013-11-15 14:23:00,55.1,37.3,29.83,SSE,157,0.0,4.8,51,0.00,,,0.00,WUHU21636XXSP,2013-11-15 20:23:00,
2013-11-15 14:28:00,55.1,36.8,29.82,WSW,247,1.2,2.6,50,0.00,,,0.00,WUHU21636XXSP,2013-11-15 20:28:00,
2013-11-15 14:33:00,55.1,37.3,29.82,SW,225,0.0,8.0,51,0.00,,,0.00,WUHU21636XXSP,2013-11-15 20:33:00,
2013-11-15 14:38:00,55.3,37.0,29.82,SW,233,4.1,8.0,50,0.00,,,0.00,WUHU21636XXSP,2013-11-15 20:38:00,
2013-11-15 14:43:00,55.1,36.8,29.83,NW,315,0.0,5.2,50,0.00,,,0.00,WUHU21636XXSP,2013-11-15 20:43:00,
2013-11-15 14:48:00,55.1,36.8,29.82,SSW,202,0.0,3.0,50,0.00,,,0.00,WUHU21636XXSP,2013-11-15 20:48:00,
2013-11-15 14:53:00,54.9,36.6,29.82,SW,225,5.2,18.2,50,0.00,,,0.00,WUHU21636XXSP,2013-11-15 20:53:00,
2013-11-15 14:58:00,54.7,36.9,29.82,SW,225,0.0,18.2,51,0.00,,,0.00,WUHU21636XXSP,2013-11-15 20:58:00,
2013-11-15 15:03:00,54.5,36.7,29.82,WSW,247,12.0,12.0,51,0.00,,,0.00,WUHU21636XXSP,2013-11-15 21:03:00,
2013-11-15 15:08:00,54.5,37.2,29.81,SW,225,4.0,12.0,52,0.00,,,0.00,WUHU21636XXSP,2013-11-15 21:08:00,
2013-11-15 15:13:00,54.2,37.0,29.82,West,270,0.0,6.2,52,0.00,,,0.00,WUHU21636XXSP,2013-11-15 21:13:00,
2013-11-15 15:18:00,53.8,36.6,29.82,SSE,157,0.8,8.8,52,0.00,,,0.00,WUHU21636XXSP,2013-11-15 21:18:00,
2013-11-15 15:23:00,53.5,36.9,29.81,WSW,247,0.0,8.8,53,0.00,,,0.00,WUHU21636XXSP,2013-11-15 21:23:00,
2013-11-15 15:28:00,53.4,36.8,29.81,South,180,0.0,0.0,53,0.00,,,0.00,WUHU21636XXSP,2013-11-15 21:28:00,
2013-11-15 15:33:00,53.4,36.8,29.81,WSW,247,0.0,0.0,53,0.00,,,0.00,WUHU21636XXSP,2013-11-15 21:33:00,
2013-11-15 15:38:00,53.2,37.1,29.81,WSW,247,0.0,0.0,54,0.00,,,0.00,WUHU21636XXSP,2013-11-15 21:38:00,
2013-11-15 15:43:00,53.2,37.1,29.81,WSW,247,0.0,0.0,54,0.00,,,0.00,WUHU21636XXSP,2013-11-15 21:43:00,
2013-11-15 15:48:00,52.8,37.1,29.81,WSW,247,0.0,0.0,55,0.00,,,0.00,WUHU21636XXSP,2013-11-15 21:48:00,
2013-11-15 15:53:00,52.1,36.5,29.81,WSW,247,0.0,0.0,55,0.00,,,0.00,WUHU21636XXSP,2013-11-15 21:53:00,
2013-11-15 15:58:00,51.6,36.4,29.81,WSW,247,0.0,0.0,56,0.00,,,0.00,WUHU21636XXSP,2013-11-15 21:58:00,
2013-11-15 16:03:00,50.9,36.3,29.81,WSW,247,0.0,0.0,57,0.00,,,0.00,WUHU21636XXSP,2013-11-15 22:03:00,
2013-11-15 16:08:00,50.7,36.1,29.81,WSW,247,0.0,0.0,57,0.00,,,0.00,WUHU21636XXSP,2013-11-15 22:08:00,
2013-11-15 16:13:00,50.4,35.8,29.81,WSW,247,0.0,0.0,57,0.00,,,0.00,WUHU21636XXSP,2013-11-15 22:13:00,
2013-11-15 16:18:00,50.0,35.9,29.81,WSW,247,0.0,0.0,58,0.00,,,0.00,WUHU21636XXSP,2013-11-15 22:18:00,
2013-11-15 16:23:00,49.5,35.4,29.81,WSW,247,0.0,0.0,58,0.00,,,0.00,WUHU21636XXSP,2013-11-15 22:23:00,
2013-11-15 16:28:00,49.0,35.4,29.81,WSW,247,0.0,0.0,59,0.00,,,0.00,WUHU21636XXSP,2013-11-15 22:28:00,
2013-11-15 16:33:00,48.8,35.2,29.81,WSW,247,0.0,0.0,59,0.00,,,0.00,WUHU21636XXSP,2013-11-15 22:33:00,
2013-11-15 16:38:00,48.3,34.7,29.81,WSW,247,0.0,0.0,59,0.00,,,0.00,WUHU21636XXSP,2013-11-15 22:38:00,
2013-11-15 16:43:00,47.9,35.2,29.81,WSW,247,0.0,0.0,61,0.00,,,0.00,WUHU21636XXSP,2013-11-15 22:43:00,
2013-11-15 16:48:00,47.1,34.5,29.82,WSW,247,0.0,0.0,61,0.00,,,0.00,WUHU21636XXSP,2013-11-15 22:48:00,
2013-11-15 16:53:00,46.9,34.7,29.81,SSW,202,0.0,0.0,62,0.00,,,0.00,WUHU21636XXSP,2013-11-15 22:53:00,
2013-11-15 16:58:00,46.4,34.2,29.81,SSW,202,0.0,0.0,62,0.00,,,0.00,WUHU21636XXSP,2013-11-15 22:58:00,
2013-11-15 17:03:00,46.2,34.0,29.81,SSW,202,0.0,0.0,62,0.00,,,0.00,WUHU21636XXSP,2013-11-15 23:03:00,
2013-11-15 17:08:00,45.9,34.1,29.81,SSW,202,0.0,0.0,63,0.00,,,0.00,WUHU21636XXSP,2013-11-15 23:08:00,
2013-11-15 17:13:00,45.3,33.9,29.81,SSW,202,0.0,0.0,64,0.00,,,0.00,WUHU21636XXSP,2013-11-15 23:13:00,
2013-11-15 17:18:00,45.0,33.7,29.81,SSW,202,0.0,0.0,64,0.00,,,0.00,WUHU21636XXSP,2013-11-15 23:18:00,
2013-11-15 17:23:00,44.7,33.4,29.81,SSW,202,0.0,0.0,64,0.00,,,0.00,WUHU21636XXSP,2013-11-15 23:23:00,
2013-11-15 17:28:00,44.1,33.2,29.81,SSW,202,0.0,0.0,65,0.00,,,0.00,WUHU21636XXSP,2013-11-15 23:28:00,
2013-11-15 17:33:00,43.8,32.9,29.81,SSW,202,0.0,0.0,65,0.00,,,0.00,WUHU21636XXSP,2013-11-15 23:33:00,
2013-11-15 17:38:00,43.4,32.9,29.81,SSW,202,0.0,0.0,66,0.00,,,0.00,WUHU21636XXSP,2013-11-15 23:38:00,
2013-11-15 17:43:00,43.2,33.0,29.81,SSW,202,0.0,0.0,67,0.00,,,0.00,WUHU21636XXSP,2013-11-15 23:43:00,
2013-11-15 17:48:00,42.8,32.7,29.81,SSW,202,0.0,0.0,67,0.00,,,0.00,WUHU21636XXSP,2013-11-15 23:48:00,
2013-11-15 17:53:00,42.4,32.3,29.81,SSW,202,0.0,0.0,67,0.00,,,0.00,WUHU21636XXSP,2013-11-15 23:53:00,
2013-11-15 17:58:00,42.2,32.5,29.81,SSW,202,0.0,0.0,68,0.00,,,0.00,WUHU21636XXSP,2013-11-15 23:58:00,
2013-11-15 18:03:00,42.2,32.5,29.81,SSW,202,0.0,0.0,68,0.00,,,0.00,WUHU21636XXSP,2013-11-16 00:03:00,
2013-11-15 18:08:00,42.1,32.8,29.80,SSW,202,0.0,0.0,69,0.00,,,0.00,WUHU21636XXSP,2013-11-16 00:08:00,
2013-11-15 18:13:00,41.5,32.1,29.80,SSW,202,0.0,0.0,69,0.00,,,0.00,WUHU21636XXSP,2013-11-16 00:13:00,
2013-11-15 18:18:00,41.3,32.6,29.80,SSW,202,0.0,0.0,71,0.00,,,0.00,WUHU21636XXSP,2013-11-16 00:18:00,
2013-11-15 18:23:00,41.3,32.3,29.80,SSW,202,0.0,0.0,70,0.00,,,0.00,WUHU21636XXSP,2013-11-16 00:23:00,
2013-11-15 18:28:00,41.2,32.5,29.79,SSW,202,0.0,0.0,71,0.00,,,0.00,WUHU21636XXSP,2013-11-16 00:28:00,
2013-11-15 18:33:00,41.0,32.3,29.79,SSW,202,0.0,0.0,71,0.00,,,0.00,WUHU21636XXSP,2013-11-16 00:33:00,
2013-11-15 18:38:00,41.0,32.3,29.79,SSW,202,0.0,0.0,71,0.00,,,0.00,WUHU21636XXSP,2013-11-16 00:38:00,
2013-11-15 18:43:00,41.0,32.7,29.79,ESE,112,0.0,0.0,72,0.00,,,0.00,WUHU21636XXSP,2013-11-16 00:43:00,
2013-11-15 18:48:00,40.5,32.3,29.79,ESE,112,0.0,0.0,72,0.00,,,0.00,WUHU21636XXSP,2013-11-16 00:48:00,
2013-11-15 18:53:00,40.5,32.3,29.80,East,90,0.0,0.0,72,0.00,,,0.00,WUHU21636XXSP,2013-11-16 00:53:00,
2013-11-15 18:58:00,40.2,32.0,29.80,East,90,0.0,0.0,72,0.00,,,0.00,WUHU21636XXSP,2013-11-16 00:58:00,
2013-11-15 19:03:00,40.0,31.8,29.80,ESE,112,0.0,0.0,72,0.00,,,0.00,WUHU21636XXSP,2013-11-16 01:03:00,
2013-11-15 19:08:00,40.0,31.8,29.79,ESE,112,0.0,0.0,72,0.00,,,0.00,WUHU21636XXSP,2013-11-16 01:08:00,
2013-11-15 19:13:00,39.6,31.4,29.79,ESE,112,0.0,0.0,72,0.00,,,0.00,WUHU21636XXSP,2013-11-16 01:13:00,
2013-11-15 19:18:00,39.4,31.8,29.79,ESE,112,0.0,0.0,74,0.00,,,0.00,WUHU21636XXSP,2013-11-16 01:18:00,
2013-11-15 19:23:00,39.4,31.8,29.79,ESE,112,0.0,0.0,74,0.00,,,0.00,WUHU21636XXSP,2013-11-16 01:23:00,
2013-11-15 19:28:00,39.1,31.5,29.80,ESE,112,0.0,0.0,74,0.00,,,0.00,WUHU21636XXSP,2013-11-16 01:28:00,
2013-11-15 19:33:00,39.1,31.9,29.80,ENE,67,0.0,0.0,75,0.00,,,0.00,WUHU21636XXSP,2013-11-16 01:33:00,
2013-11-15 19:38:00,38.8,31.7,29.80,ENE,67,0.0,0.0,75,0.00,,,0.00,WUHU21636XXSP,2013-11-16 01:38:00,
2013-11-15 19:43:00,38.6,31.5,29.80,ESE,112,0.0,0.0,75,0.00,,,0.00,WUHU21636XXSP,2013-11-16 01:43:00,
2013-11-15 19:48:00,38.4,31.2,29.80,ESE,112,0.0,0.0,75,0.00,,,0.00,WUHU21636XXSP,2013-11-16 01:48:00,
2013-11-15 19:53:00,38.4,31.6,29.80,ESE,112,0.0,0.0,76,0.00,,,0.00,WUHU21636XXSP,2013-11-16 01:53:00,
2013-11-15 19:58:00,38.4,31.6,29.80,ESE,112,0.0,0.0,76,0.00,,,0.00,WUHU21636XXSP,2013-11-16 01:58:00,
2013-11-15 20:03:00,38.4,31.6,29.80,ESE,112,0.0,0.0,76,0.00,,,0.00,WUHU21636XXSP,2013-11-16 02:03:00,
2013-11-15 20:08:00,38.4,31.6,29.80,ESE,112,0.0,0.0,76,0.00,,,0.00,WUHU21636XXSP,2013-11-16 02:08:00,
2013-11-15 20:13:00,38.3,31.5,29.80,East,90,0.0,0.0,76,0.00,,,0.00,WUHU21636XXSP,2013-11-16 02:13:00,
2013-11-15 20:18:00,38.3,31.5,29.79,East,90,0.0,0.0,76,0.00,,,0.00,WUHU21636XXSP,2013-11-16 02:18:00,
2013-11-15 20:23:00,38.3,31.5,29.79,East,90,0.0,0.0,76,0.00,,,0.00,WUHU21636XXSP,2013-11-16 02:23:00,
2013-11-15 20:28:00,38.3,31.5,29.79,East,90,0.0,0.0,76,0.00,,,0.00,WUHU21636XXSP,2013-11-16 02:28:00,
2013-11-15 20:33:00,38.1,31.3,29.79,ENE,67,0.0,0.0,76,0.00,,,0.00,WUHU21636XXSP,2013-11-16 02:33:00,
2013-11-15 20:38:00,38.1,31.6,29.79,ENE,67,0.0,0.0,77,0.00,,,0.00,WUHU21636XXSP,2013-11-16 02:38:00,
2013-11-15 20:43:00,38.1,31.6,29.79,ENE,67,0.0,0.0,77,0.00,,,0.00,WUHU21636XXSP,2013-11-16 02:43:00,
2013-11-15 20:48:00,38.1,31.6,29.79,ENE,67,0.0,0.0,77,0.00,,,0.00,WUHU21636XXSP,2013-11-16 02:48:00,
2013-11-15 20:53:00,38.3,31.8,29.79,ENE,67,0.0,0.0,77,0.00,,,0.00,WUHU21636XXSP,2013-11-16 02:53:00,
2013-11-15 20:58:00,38.1,31.6,29.79,ENE,67,0.0,0.0,77,0.00,,,0.00,WUHU21636XXSP,2013-11-16 02:58:00,
2013-11-15 21:03:00,38.1,31.6,29.79,ENE,67,0.0,0.0,77,0.00,,,0.00,WUHU21636XXSP,2013-11-16 03:03:00,
2013-11-15 21:08:00,38.1,31.6,29.79,ENE,67,0.0,0.0,77,0.00,,,0.00,WUHU21636XXSP,2013-11-16 03:08:00,
2013-11-15 21:13:00,38.1,31.6,29.79,ENE,67,0.0,0.0,77,0.00,,,0.00,WUHU21636XXSP,2013-11-16 03:13:00,
2013-11-15 21:18:00,38.4,31.9,29.79,ENE,67,0.0,0.0,77,0.00,,,0.00,WUHU21636XXSP,2013-11-16 03:18:00,
2013-11-15 21:23:00,38.6,32.1,29.79,WNW,292,0.0,0.0,77,0.00,,,0.00,WUHU21636XXSP,2013-11-16 03:23:00,
2013-11-15 21:28:00,39.1,31.9,29.79,NE,45,0.0,0.0,75,0.00,,,0.00,WUHU21636XXSP,2013-11-16 03:28:00,
2013-11-15 21:33:00,39.6,32.0,29.79,NNE,22,0.0,0.0,74,0.00,,,0.00,WUHU21636XXSP,2013-11-16 03:33:00,
2013-11-15 21:38:00,40.0,32.1,29.79,ESE,112,0.0,0.0,73,0.00,,,0.00,WUHU21636XXSP,2013-11-16 03:38:00,
2013-11-15 21:43:00,40.3,32.1,29.79,ESE,112,0.0,0.0,72,0.00,,,0.00,WUHU21636XXSP,2013-11-16 03:43:00,
2013-11-15 21:48:00,40.0,31.8,29.79,East,90,0.0,0.0,72,0.00,,,0.00,WUHU21636XXSP,2013-11-16 03:48:00,
2013-11-15 21:53:00,40.0,31.8,29.80,SSE,157,0.0,0.0,72,0.00,,,0.00,WUHU21636XXSP,2013-11-16 03:53:00,
2013-11-15 21:58:00,40.0,31.8,29.80,East,90,0.0,0.0,72,0.00,,,0.00,WUHU21636XXSP,2013-11-16 03:58:00,
2013-11-15 22:03:00,39.4,31.5,29.80,NE,45,0.0,0.0,73,0.00,,,0.00,WUHU21636XXSP,2013-11-16 04:03:00,
2013-11-15 22:08:00,39.6,31.7,29.79,ESE,112,0.0,0.0,73,0.00,,,0.00,WUHU21636XXSP,2013-11-16 04:08:00,
2013-11-15 22:13:00,39.6,31.7,29.79,ESE,112,0.0,0.0,73,0.00,,,0.00,WUHU21636XXSP,2013-11-16 04:13:00,
2013-11-15 22:18:00,39.4,31.5,29.79,NE,45,0.0,0.0,73,0.00,,,0.00,WUHU21636XXSP,2013-11-16 04:18:00,
2013-11-15 22:23:00,39.4,31.5,29.79,NE,45,0.0,0.0,73,0.00,,,0.00,WUHU21636XXSP,2013-11-16 04:23:00,
2013-11-15 22:28:00,39.4,31.5,29.79,NE,45,0.0,0.0,73,0.00,,,0.00,WUHU21636XXSP,2013-11-16 04:28:00,
2013-11-15 22:33:00,39.4,31.2,29.79,NE,45,0.0,0.0,72,0.00,,,0.00,WUHU21636XXSP,2013-11-16 04:33:00,
2013-11-15 22:38:00,39.1,31.2,29.79,NE,45,0.0,0.0,73,0.00,,,0.00,WUHU21636XXSP,2013-11-16 04:38:00,
2013-11-15 22:43:00,38.4,30.9,29.79,NNE,22,0.0,0.0,74,0.00,,,0.00,WUHU21636XXSP,2013-11-16 04:43:00,
2013-11-15 22:48:00,38.3,31.1,29.79,East,90,0.0,0.0,75,0.00,,,0.00,WUHU21636XXSP,2013-11-16 04:48:00,
2013-11-15 22:53:00,38.1,30.9,29.79,East,90,0.0,0.0,75,0.00,,,0.00,WUHU21636XXSP,2013-11-16 04:53:00,
2013-11-15 22:58:00,38.1,30.9,29.79,East,90,0.0,0.0,75,0.00,,,0.00,WUHU21636XXSP,2013-11-16 04:58:00,
2013-11-15 23:01:00,38.1,30.9,29.79,East,90,0.0,0.0,75,0.00,,,0.00,WUHU21636XXSP,2013-11-16 05:01:00,
2013-11-15 23:06:00,38.3,31.1,29.79,WSW,247,0.0,0.0,75,0.00,,,0.00,WUHU21636XXSP,2013-11-16 05:06:00,
2013-11-15 23:11:00,38.6,31.5,29.79,WSW,247,0.0,0.0,75,0.00,,,0.00,WUHU21636XXSP,2013-11-16 05:11:00,
2013-11-15 23:16:00,39.1,31.9,29.79,West,270,0.0,0.0,75,0.00,,,0.00,WUHU21636XXSP,2013-11-16 05:16:00,
2013-11-15 23:21:00,39.4,31.8,29.79,West,270,0.0,0.0,74,0.00,,,0.00,WUHU21636XXSP,2013-11-16 05:21:00,
2013-11-15 23:26:00,39.6,32.0,29.78,West,270,0.0,0.0,74,0.00,,,0.00,WUHU21636XXSP,2013-11-16 05:26:00,
2013-11-15 23:31:00,40.0,32.1,29.78,West,270,0.0,0.0,73,0.00,,,0.00,WUHU21636XXSP,2013-11-16 05:31:00,
2013-11-15 23:36:00,40.3,32.4,29.78,SW,225,3.0,3.0,73,0.00,,,0.00,WUHU21636XXSP,2013-11-16 05:36:00,
2013-11-15 23:41:00,40.5,32.6,29.78,SW,225,0.0,3.0,73,0.00,,,0.00,WUHU21636XXSP,2013-11-16 05:41:00,
2013-11-15 23:46:00,40.5,32.6,29.78,SW,225,0.0,3.0,73,0.00,,,0.00,WUHU21636XXSP,2013-11-16 05:46:00,
2013-11-15 23:51:00,40.5,32.6,29.78,SW,225,0.0,0.0,73,0.00,,,0.00,WUHU21636XXSP,2013-11-16 05:51:00,
2013-11-15 23:56:00,40.5,32.3,29.77,SSW,202,0.0,0.0,72,0.00,,,0.00,WUHU21636XXSP,2013-11-16 05:56:00,